Location: Moscow
(55.7500°N, 37.5830°E)
Time: 06:24:12
(UTC+03:00)

Envisat - Pass Details

Date: 31 October 2021
Orbit: 764 x 766 km, 98.2° (Epoch: 28 November)

Event Time Altitude Azimuth Distance (km) Brightness Sun altitude
Rises 17:36:24 0° 199° (SSW) 3,224 6.8 -6.7°
Reaches altitude 10° 17:39:03 10° 212° (SSW) 2,303 6.2 -7.1°
Maximum altitude 17:43:18 27° 269° (W) 1,461 5.5 -7.7°
Drops below altitude 10° 17:47:36 10° 326° (NW) 2,316 5.8 -8.2°
Sets 17:50:16 0° 339° (NNW) 3,247 6.4 -8.6°
